This is the latest recevied weather packets stored in our database for station/object KB7STN. If no packets are shown the sender has not sent any weather packets the latest 10 day(s).
| Time | Temp. | Humidity | Pressure | Rain* | Wind** | Luminosity | Snow |
|---|---|---|---|---|---|---|---|
| 1778105834 | 15.56° C | 26% | 1013.4 hPa | 0 mm | - | - | - |
| 1778105534 | 15.56° C | 27% | 1013.5 hPa | 0 mm | - | - | - |
| 1778105234 | 15.56° C | 27% | 1013.6 hPa | 0 mm | - | - | - |
| 1778104934 | 15.56° C | 27% | 1013.5 hPa | 0 mm | - | - | - |
| 1778104634 | 15.56° C | 27% | 1013.5 hPa | 0 mm | - | - | - |
| 1778104334 | 15.56° C | 27% | 1013.7 hPa | 0 mm | - | - | - |
| 1778104034 | 15.56° C | 27% | 1013.8 hPa | 0 mm | - | - | - |
| 1778103734 | 15.56° C | 29% | 1013.8 hPa | 0 mm | - | - | - |
| 1778103434 | 15.56° C | 27% | 1013.8 hPa | 0 mm | - | - | - |
| 1778103134 | 15° C | 30% | 1013.9 hPa | 0 mm | - | - | - |
| 1778102834 | 15° C | 27% | 1014 hPa | 0 mm | - | - | - |
| 1778102534 | 15° C | 29% | 1014.1 hPa | 0 mm | - | - | - |
| 1778102234 | 15° C | 29% | 1014 hPa | 0 mm | - | - | - |
| 1778101934 | 15° C | 28% | 1014 hPa | 0 mm | - | - | - |
| 1778101634 | 15° C | 29% | 1013.7 hPa | 0 mm | - | - | - |
| 1778101334 | 15° C | 29% | 1014 hPa | 0 mm | - | - | - |
| 1778101034 | 15° C | 29% | 1014 hPa | 0 mm | - | - | - |
| 1778100734 | 14.44° C | 29% | 1014 hPa | 0 mm | - | - | - |
| 1778100434 | 14.44° C | 28% | 1013.9 hPa | 0 mm | - | - | - |
| 1778100134 | 14.44° C | 30% | 1013.9 hPa | 0 mm | - | - | - |
| 1778099835 | 14.44° C | 30% | 1013.8 hPa | 0 mm | - | - | - |
| 1778099534 | 14.44° C | 27% | 1014 hPa | 0 mm | - | - | - |
| 1778099234 | 14.44° C | 30% | 1014 hPa | 0 mm | - | - | - |
| 1778098934 | 14.44° C | 30% | 1014.1 hPa | 0 mm | - | - | - |
| 1778098634 | 14.44° C | 29% | 1014.1 hPa | 0 mm | - | - | - |
* Rain latest hour (hover to see other rain measurements)
** Current wind speed in m/s (hover to see current wind gust speed)